Skip Page Navigation
NASA JPL Caltech
NASA Logo - Jet Propulsion Laboratory + View the NASA Portal
+ Near-Earth Object (NEO) Program
Search JPL
JPL Home Earth Solar System Stars & Galaxies Technology
JPL Solar System Dynamics
BODIES ORBITS EPHEMERIDES TOOLS PHYSICAL DATA DISCOVERY FAQ SITE MAP
JPL Small-Body Database Browser
Search: [ help ]  
33330 Bareges (1998 SW)
Classification: Mars-crossing Asteroid          SPK-ID: 2033330
Ephemeris | Orbit Diagram | Orbital Elements | Physical Parameters | Discovery Circumstances | Close-Approach Data ]

[ show orbit diagram ]
Orbital Elements at Epoch 2457000.5 (2014-Dec-09.0) TDB
Reference: JPL 6 (heliocentric ecliptic J2000)
 Element Value Uncertainty (1-sigma)   Units 
e .2370498396434374 6.8136e-08  
a 2.181569990537477 1.1716e-08 AU
q 1.664429174109633 1.4678e-07 AU
i 1.155930305522706 7.2835e-06 deg
node 45.60847664649816 0.00033961 deg
peri 287.1370948875465 0.0003398 deg
M 37.11690132540384 1.6577e-05 deg
tp 2456879.155145647920
(2014-Aug-09.65514565)
5.3738e-05 JED
period 1176.934119143458
3.22
9.4806e-06
2.596e-08
d
yr
n .3058794830946006 2.464e-09 deg/d
Q 2.698710806965321 1.4493e-08 AU
  Orbit Determination Parameters
   # obs. used (total)      327  
   data-arc span      10543 days (28.87 yr)  
   first obs. used      1985-09-15  
   last obs. used      2014-07-28  
   planetary ephem.      DE431  
   SB-pert. ephem.      SB431-BIG16  
   condition code      0  
   fit RMS      .51065  
   data source      ORB  
   producer      Otto Matic  
   solution date      2014-Aug-13 14:53:11  

Additional Information
 Earth MOID = .655169 AU 
 T_jup = 3.643 
[ show covariance matrix ]

Ephemeris | Orbit Diagram | Orbital Elements | Physical Parameters | Discovery Circumstances | Close-Approach Data ]

Physical Parameter Table
Parameter Symbol Value Units Sigma Reference Notes
absolute magnitude H 16.8 mag n/a MPO302259  

33330 Barèges           Discovered 1998 Sept. 16 by the OCA-DLR Asteroid Survey at Caussols.
Barèges is a small mountain village situated at the foot of the Pic du Midi, site of the well-known observatory. Historically known for its spa waters, it is also the base for the largest skiing area in the French Pyrenees.
NOTE: some special characters may not display properly (any characters within {} are an attempt to place the proper accent above a character)
Reference: 20020921/MPCPages.arcLast Updated: 2003-10-02

[ show close-approach data ]
Alternate Designations
 1998 SW = 1985 RZ5 = 2001 QA36 
Ephemeris | Orbit Diagram | Orbital Elements | Physical Parameters | Discovery Circumstances | Close-Approach Data ]
ABOUT SSD CREDITS/AWARDS PRIVACY/COPYRIGHT GLOSSARY LINKS
FirstGov 2014-Aug-22 09:51 UT
(server date/time)  
NASA Home Page
Site Manager:   Donald K. Yeomans
Webmaster  Alan B. Chamberlin